[[{"header":{"parameterUnit":"m.s-1","parameterCategory":2,"la1":30.2991,"la2":30.254,"lo1":-89.0895,"lo2":-89.0444,"dy":0.0017,"dx":0.0017,"nx":28,"ny":28,"refTime":"2025-04-28T09:00:00:Z","depth":"0","parameterNumber":2,"parameterNumberName":"U-component_of_CURRENTS"},"data":[0,0,0,0,0,0,0,0,0,0,0,0,0,0,0,0,0,0,0,0,0,0,0,0,0,0,0,0,0,0,0,0,0,0,0,0,0,0,0,0,0,0,0,0,0,0,0,0,0,0,0,0,0,0,0,0,0,0,0.33,0.3301,0,0.3327,0.3327,0.3327,0.331,0.331,0.3309,0.3309,0.33,0.33,0.33,0,0,0,0,0,0,0,0,0,0,0,0,0,0.3261,0.3262,0.33,0.3301,0.3302,0.3327,0.3327,0.3327,0.331,0.331,0.3309,0.3308,0.33,0.33,0.33,0,0,0,0,0,0,0,0,0,0,0,0,0,0.3279,0.3262,0.33,0.3299,0.3299,0.3327,0.3327,0.3327,0.331,0.331,0.3309,0.3308,0.33,0.33,0.33,0.3316,0,0,0.3301,0.3301,0,0,0,0,0,0,0,0,0.3278,0.328,0.3298,0.3299,0.33,0.3317,0.331,0.3323,0.331,0.3303,0.3309,0.3308,0.3305,0.3305,0.3307,0.3316,0.3316,0.3301,0.3301,0.3301,0.3302,0,0,0,0,0,0,0,0.3277,0.3279,0.3307,0.3299,0.33,0.3306,0.3307,0.3312,0.3304,0.3303,0.3303,0.3311,0.3304,0.3307,0.3307,0.3315,0.3301,0.3301,0.3302,0.3302,0.3399,0.3402,0,0,0,0,0,0,0.328,0.3278,0.3307,0.3309,0.329,0.3307,0.3308,0.331,0.3305,0.3305,0.3312,0.331,0.3307,0.3306,0.3306,0.3379,0.3301,0.3302,0.3302,0.3397,0.34,0.3403,0,0,0,0,0,0,0.3279,0.3282,0.3306,0.3297,0.3301,0.3309,0.331,0.3311,0.3317,0.3313,0.3311,0.3319,0.3306,0.3306,0.3324,0.3376,0.3302,0.3302,0.3394,0.3398,0.3401,0.349,0,0,0,0,0,0,0.3277,0.3281,0.3283,0.3297,0.3301,0.3331,0.3311,0.3312,0.3325,0.3323,0.3319,0.3317,0.3306,0.3324,0.3325,0.3375,0.3302,0.3391,0.3396,0.34,0.3484,0.3496,0.3506,0,0,0,0,0,0.3275,0.328,0.3282,0.3286,0.3303,0.3332,0.3335,0.3336,0.3326,0.3337,0.3336,0.3317,0.3354,0.3326,0.3326,0.3378,0.3389,0.3395,0.34,0.3479,0.3493,0.3506,0,0,0,0,0,0,0.3261,0.328,0.3282,0.3291,0.3316,0.333,0.3342,0.3343,0.3351,0.3351,0.3336,0.3335,0.3381,0.3364,0.3333,0.3422,0.3374,0.3379,0.3434,0.3447,0.3458,0.349,0.3303,0,0,0,0,0,0.3261,0.3269,0.3294,0.3302,0.3318,0.3332,0.3343,0.335,0.3361,0.3363,0.3363,0.3373,0.3405,0.341,0.3429,0.3462,0.3481,0.35,0.3512,0.3521,0.355,0.3619,0.3639,0.342,0.342,0.342,0,0,0.3256,0.327,0.3273,0.3301,0.3318,0.3355,0.3336,0.3364,0.3399,0.3362,0.3402,0.3413,0.3424,0.3475,0.3494,0.3463,0.3595,0.3528,0.3536,0.356,0.3627,0.3648,0.3667,0.3424,0.3423,0.3423,0,0,0.3262,0.3268,0.3284,0.3312,0.335,0.337,0.3382,0.341,0.3427,0.3463,0.3466,0.3512,0.3523,0.3565,0.3583,0.3668,0.3658,0.3667,0.3742,0.3809,0.3828,0.3844,0.39,0.3921,0.3665,0.3665,0.3665,0,0.3259,0.3281,0.3295,0.333,0.336,0.3382,0.3422,0.3452,0.3482,0.3516,0.3485,0.3578,0.358,0.3681,0.3712,0.3698,0.3722,0.3685,0.3824,0.3841,0.3857,0.391,0.3932,0.367,0.3669,0.3669,0.3668,0,0.3281,0.3309,0.3326,0.3379,0.3416,0.3452,0.3505,0.3545,0.3564,0.3599,0.3691,0.3708,0.3764,0.3781,0.3769,0.3895,0.3873,0.3835,0.3789,0.3885,0.3934,0.3955,0.3677,0.3675,0.3674,0.3672,0,0,0.3249,0.3326,0.3332,0.3373,0.3446,0.348,0.3559,0.3642,0.3715,0.3747,0.3843,0.3907,0.3922,0.3947,0.3954,0.4015,0.4143,0.3973,0.3975,0.4028,0.4289,0.4259,0.4279,0.4121,0.4125,0.4128,0.428,0,0.3265,0.333,0.3371,0.3451,0.3495,0.3559,0.3638,0.372,0.3787,0.3886,0.3941,0.4032,0.3984,0.4029,0.4083,0.4141,0.4203,0.4105,0.4191,0.4194,0.4155,0.4305,0.415,0.4271,0.43,0.4304,0.4306,0,0.3272,0.3321,0.339,0.3505,0.3533,0.3587,0.373,0.3808,0.3957,0.4015,0.4111,0.4155,0.4279,0.4209,0.4352,0.4287,0.4303,0.433,0.4335,0.4296,0.4205,0.4181,0.4308,0.417,0.4339,0.4336,0.4334,0,0.3241,0.3337,0.3391,0.3426,0.3557,0.3611,0.3691,0.384,0.3939,0.4111,0.4205,0.4322,0.4405,0.4454,0.4498,0.4436,0.4646,0.4557,0.4548,0.4544,0.4428,0.4408,0.4433,0.4664,0.4664,0.4663,0.4663,0,0.3247,0.33,0.3378,0.3415,0.3522,0.3602,0.3743,0.3854,0.4017,0.4157,0.4265,0.4393,0.4472,0.4583,0.458,0.4655,0.4708,0.4617,0.4606,0.4454,0.4435,0.4317,0.4264,0.4669,0.4668,0.4667,0.4666,0,0.3241,0.3277,0.336,0.3471,0.3513,0.3594,0.3772,0.3871,0.4034,0.4223,0.4287,0.4485,0.4638,0.4712,0.4827,0.4776,0.4711,0.4836,0.4654,0.462,0.4445,0.4403,0.4317,0.4181,0.4859,0.4859,0.486,0,0.3265,0.3291,0.3394,0.3447,0.3505,0.3624,0.371,0.3869,0.3972,0.427,0.4348,0.4577,0.4711,0.4891,0.4883,0.4926,0.4744,0.4779,0.4635,0.4472,0.4417,0.4228,0.4104,0.4514,0.4511,0.451,0.4508,0,0.3337,0.3347,0.3418,0.3486,0.3559,0.3652,0.3771,0.3844,0.4038,0.4193,0.4392,0.4534,0.4752,0.4749,0.4837,0.4825,0.4552,0.4738,0.4619,0.4223,0.3971,0.3819,0.4371,0.449,0.4492,0.4493,0.4494,0.4495,0.3408,0.3445,0.3487,0.3545,0.3609,0.3636,0.3665,0.3779,0.3906,0.4071,0.4296,0.4418,0.4569,0.468,0.4648,0.4486,0.4451,0.4315,0.4304,0.4145,0.3935,0.446,0.4528,0.453,0.4532,0.4533,0.4535,0,0.3466,0.3476,0.3544,0.3566,0.3559,0.3604,0.3668,0.3644,0.3699,0.3891,0.4037,0.4163,0.4219,0.4274,0.4239,0.4064,0.3846,0.3936,0.362,0.3537,0.406,0.3963,0.385,0.385,0.385,0.385,0.385,0.3851,0.3509,0.3533,0.3514,0.3479,0.3477,0.3402,0.3387,0.3372,0.3436,0.3481,0.3518,0.3668,0.39,0.4037,0.3877,0.3759,0.3414,0.3285,0.325,0.3613,0.3644,0.3674,0.3568,0.3374,0.3374,0.2544,0.2539,0.2534]},{"header":{"parameterUnit":"m.s-1","parameterCategory":2,"la1":30.2991,"la2":30.254,"lo1":-89.0895,"lo2":-89.0444,"dy":0.0017,"dx":0.0017,"nx":28,"ny":28,"refTime":"2025-04-28T09:00:00:Z","depth":"0","parameterNumber":3,"parameterNumberName":"V-component_of_CURRENTS"},"data":[0,0,0,0,0,0,0,0,0,0,0,0,0,0,0,0,0,0,0,0,0,0,0,0,0,0,0,0,0,0,0,0,0,0,0,0,0,0,0,0,0,0,0,0,0,0,0,0,0,0,0,0,0,0,0,0,0,0,0.0179,0.0178,0,0.0083,0.0082,0.008,0.0016,0.0016,0.0016,0.0015,-0.0105,-0.0108,-0.0111,0,0,0,0,0,0,0,0,0,0,0,0,0,0.0247,0.0246,0.0179,0.0178,0.0177,0.0083,0.0082,0.008,0.0016,0.0016,0.0016,0.0015,-0.0104,-0.0108,-0.0111,0,0,0,0,0,0,0,0,0,0,0,0,0,0.0189,0.0246,0.018,0.0136,0.0131,0.0084,0.0082,0.008,0.0016,0.0016,0.0015,0.0015,-0.0103,-0.0107,-0.0112,-0.0132,0,0,-0.0125,-0.0127,0,0,0,0,0,0,0,0,0.0192,0.0186,0.0143,0.0139,0.0133,0.0063,0.0061,0.0008,0.0016,0.0057,0.0015,0.0015,-0.0049,-0.0058,-0.0078,-0.0138,-0.0143,-0.0126,-0.0129,-0.013,-0.0132,0,0,0,0,0,0,0,0.0197,0.019,0.0139,0.0142,0.0136,0.01,0.0092,0.0051,0.0005,0.0054,0.0049,0.0042,-0.0053,-0.0074,-0.0082,-0.0145,-0.0126,-0.013,-0.0132,-0.0134,-0.0218,-0.0218,0,0,0,0,0,0,0.0216,0.0194,0.0142,0.0136,0.0165,0.01,0.009,0.0084,0.0006,-0.0006,0.0043,0.004,-0.0066,-0.0076,-0.0086,-0.009,-0.013,-0.0135,-0.0137,-0.0218,-0.0218,-0.0217,0,0,0,0,0,0,0.0218,0.0213,0.0146,0.0164,0.0154,0.01,0.0093,0.0083,0.0065,-0.0002,-0.0014,0.0037,-0.0067,-0.008,-0.0113,-0.0096,-0.0137,-0.0141,-0.0219,-0.0218,-0.0218,-0.0113,0,0,0,0,0,0,0.0221,0.0214,0.0217,0.0166,0.0154,0.013,0.0093,0.0081,0.0062,0.0057,-0.0011,-0.0023,-0.0068,-0.0106,-0.0117,-0.0103,-0.0144,-0.022,-0.0219,-0.0218,-0.0117,-0.0109,-0.0102,0,0,0,0,0,0.0223,0.0233,0.0218,0.0212,0.016,0.0131,0.0121,0.0079,0.0063,0.0061,0.0016,-0.0021,-0.0109,-0.0109,-0.0123,-0.0109,-0.022,-0.0219,-0.0218,-0.012,-0.011,-0.0102,0,0,0,0,0,0,0.0262,0.0226,0.0209,0.0206,0.0177,0.0121,0.0117,0.0088,0.005,0.0048,-0.0017,-0.0032,-0.0056,-0.0097,-0.0096,-0.0132,-0.017,-0.0171,-0.0091,-0.0082,-0.0075,-0.0046,-0.0148,0,0,0,0,0,0.0275,0.0273,0.023,0.0229,0.0219,0.017,0.0154,0.0128,0.0088,0.007,0.0024,-0.0024,-0.0063,-0.0083,-0.0127,-0.0145,-0.0176,-0.0145,-0.0137,-0.0131,-0.0117,-0.0146,-0.0139,-0.0214,-0.0214,-0.0214,0,0,0.0288,0.027,0.0267,0.0238,0.0211,0.0211,0.0159,0.0145,0.0145,0.0064,0.0052,-0.0001,-0.0063,-0.0084,-0.0098,-0.0114,-0.0126,-0.0129,-0.0123,-0.0113,-0.0144,-0.0136,-0.013,-0.0213,-0.0213,-0.0214,0,0,0.0323,0.0301,0.0315,0.0299,0.0272,0.0245,0.0247,0.0201,0.0182,0.0158,0.0105,0.0069,0.0003,-0.0031,-0.0058,-0.0035,-0.0087,-0.0053,0.0012,-0.0015,-0.0009,-0.0004,-0.0031,-0.0029,-0.0046,-0.0045,-0.0045,0,0.0342,0.0355,0.0314,0.0326,0.0327,0.0269,0.029,0.0261,0.0211,0.0209,0.0169,0.0091,0.0032,0.0019,0.002,-0.0015,-0.0041,-0.0014,-0.0003,0.0002,0.0005,-0.0024,-0.0023,-0.004,-0.0041,-0.0041,-0.0042,0,0.0387,0.04,0.0409,0.041,0.0403,0.0411,0.0375,0.0367,0.0334,0.0305,0.028,0.0196,0.0155,0.0125,0.0073,0.0075,0.0045,0.001,-0.0019,0.002,-0.0015,-0.0015,-0.0033,-0.0035,-0.0036,-0.0037,0,0,0.0425,0.044,0.0445,0.0471,0.0453,0.0457,0.0465,0.0461,0.0491,0.0416,0.0443,0.0346,0.0301,0.0267,0.0199,0.0166,0.0156,0.0104,0.01,0.0091,0.0098,0.0088,0.0085,0.0124,0.0125,0.0125,0.0066,0,0.0477,0.0536,0.052,0.0577,0.0608,0.0573,0.0595,0.0584,0.0564,0.0574,0.0484,0.0473,0.0356,0.0346,0.0291,0.02,0.0158,0.0175,0.0051,0.0047,0.0044,0.0085,0.0096,0.0046,0.0065,0.0065,0.0064,0,0.0528,0.0567,0.0635,0.0688,0.0698,0.072,0.0765,0.0781,0.0772,0.0757,0.0717,0.0647,0.0584,0.0482,0.0336,0.0354,0.0233,0.0148,0.0143,0.0099,0.0036,0.0007,0.0043,-0.0168,0.0062,0.0062,0.0063,0,0.0594,0.0648,0.0714,0.0727,0.0769,0.08,0.0829,0.0842,0.09,0.0887,0.0934,0.0811,0.0795,0.0619,0.0421,0.0382,0.0272,0.0195,0.0067,0.0064,0.0033,0.0027,-0.0137,0.009,0.009,0.009,0.009,0,0.0663,0.0718,0.0755,0.0794,0.0903,0.0889,0.1006,0.1016,0.1068,0.1179,0.1045,0.1104,0.0831,0.0727,0.0499,0.0301,0.0326,0.0094,0.0056,0.0069,0.0067,-0.0152,-0.0275,0.0088,0.0088,0.0089,0.0089,0,0.0736,0.075,0.084,0.0902,0.0941,0.1023,0.1154,0.1238,0.1268,0.1414,0.1423,0.1342,0.1208,0.0933,0.0673,0.0443,0.0106,0.0141,0.0175,0.0142,-0.0192,-0.0308,-0.0515,-0.0598,-0.0013,-0.0014,-0.0014,0,0.0788,0.0838,0.0942,0.1021,0.1061,0.1185,0.1286,0.1342,0.1452,0.158,0.1666,0.1582,0.1564,0.1175,0.0739,0.0355,0.0126,0.0101,0.0013,-0.0191,-0.035,-0.0445,-0.0506,0.0005,0.0005,0.0005,0.0005,0,0.0905,0.0927,0.1006,0.1164,0.1279,0.1422,0.157,0.1687,0.1784,0.1919,0.2065,0.2066,0.1707,0.1313,0.0771,0.0493,-0.0041,0.0085,-0.0137,-0.0348,-0.0452,-0.0554,0.0019,0.0003,0.0003,0.0003,0.0004,0.0004,0.1002,0.1078,0.1176,0.1322,0.1461,0.1632,0.1771,0.1937,0.2144,0.2356,0.2354,0.2396,0.1813,0.1077,0.0695,-0.0042,-0.006,-0.0286,-0.0409,-0.0485,-0.057,0.0008,-0.0045,-0.0045,-0.0045,-0.0045,-0.0045,0,0.1111,0.1192,0.1337,0.1501,0.165,0.1704,0.1941,0.2086,0.2341,0.2531,0.2671,0.2383,0.1715,0.1006,0.0012,-0.0464,-0.0638,-0.0727,-0.0876,-0.0915,-0.0409,-0.0413,-0.0533,-0.0532,-0.0532,-0.0532,-0.0532,-0.0531,0.1179,0.1313,0.1367,0.1621,0.1742,0.1958,0.209,0.2318,0.2487,0.2695,0.2697,0.2667,0.2054,0.0395,-0.0698,-0.0922,-0.1262,-0.1349,-0.1502,-0.1187,-0.1156,-0.1126,-0.1159,-0.1433,-0.1434,-0.1943,-0.1948,-0.1952]}],[{"header":{"parameterUnit":"m.s-1","parameterCategory":2,"la1":30.2991,"la2":30.254,"lo1":-89.0895,"lo2":-89.0444,"dy":0.0017,"dx":0.0017,"nx":28,"ny":28,"refTime":"2025-04-28T09:00:00:Z","depth":"2","parameterNumber":2,"parameterNumberName":"U-component_of_CURRENTS"},"data":[0,0,0,0,0,0,0,0,0,0,0,0,0,0,0,0,0,0,0,0,0,0,0,0,0,0,0,0,0,0,0,0,0,0,0,0,0,0,0,0,0,0,0,0,0,0,0,0,0,0,0,0,0,0,0,0,0,0,0.2943,0.2944,0,0.2981,0.2981,0.2982,0.2984,0.2984,0.2983,0.2983,0.2999,0.2999,0.3,0,0,0,0,0,0,0,0,0,0,0,0,0,0.2881,0.2882,0.2943,0.2944,0.2945,0.2981,0.2981,0.2982,0.2984,0.2984,0.2983,0.2983,0.2999,0.2999,0.3,0,0,0,0,0,0,0,0,0,0,0,0,0,0.291,0.2882,0.2943,0.2952,0.2953,0.2981,0.2981,0.2982,0.2984,0.2984,0.2983,0.2983,0.2998,0.2999,0.3,0.3012,0,0,0.3003,0.3003,0,0,0,0,0,0,0,0,0.2908,0.2912,0.295,0.2951,0.2953,0.298,0.2965,0.2991,0.2984,0.297,0.2983,0.2983,0.2992,0.2994,0.2998,0.3012,0.3013,0.3003,0.3003,0.3004,0.3004,0,0,0,0,0,0,0,0.2906,0.291,0.2956,0.2951,0.2953,0.2957,0.296,0.297,0.298,0.2971,0.2972,0.298,0.2992,0.2997,0.2998,0.3013,0.3003,0.3004,0.3004,0.3005,0.3105,0.3107,0,0,0,0,0,0,0.2907,0.2908,0.2954,0.2957,0.2932,0.2959,0.2962,0.2969,0.298,0.2982,0.298,0.298,0.2996,0.2997,0.2999,0.3068,0.3004,0.3005,0.3005,0.3102,0.3105,0.3107,0,0,0,0,0,0,0.2905,0.291,0.2953,0.2935,0.2942,0.296,0.2968,0.297,0.2986,0.2988,0.2989,0.2995,0.2996,0.2998,0.3025,0.3066,0.3005,0.3006,0.31,0.3103,0.3106,0.3171,0,0,0,0,0,0,0.2903,0.2909,0.2918,0.2936,0.2943,0.2981,0.2969,0.2971,0.2993,0.2993,0.3001,0.3002,0.2996,0.3024,0.3026,0.3067,0.3007,0.3097,0.3101,0.3105,0.3166,0.3176,0.3184,0,0,0,0,0,0.2901,0.2911,0.2918,0.2924,0.2953,0.2982,0.2986,0.2996,0.2994,0.3008,0.3017,0.3002,0.3051,0.3026,0.3028,0.307,0.3095,0.31,0.3105,0.3162,0.3174,0.3184,0,0,0,0,0,0,0.2885,0.2914,0.2921,0.2939,0.2966,0.2983,0.2999,0.3006,0.3024,0.3028,0.3021,0.3023,0.307,0.306,0.3033,0.3113,0.3075,0.308,0.3118,0.3129,0.3138,0.315,0.3007,0,0,0,0,0,0.2888,0.2906,0.2933,0.295,0.2966,0.2986,0.3,0.3012,0.3029,0.3037,0.3045,0.3061,0.309,0.31,0.3121,0.3154,0.3172,0.3186,0.3195,0.3202,0.3216,0.3285,0.3301,0.3123,0.3123,0.3123,0,0,0.2886,0.2905,0.2914,0.2949,0.2969,0.3,0.2993,0.3025,0.3055,0.3036,0.3078,0.3095,0.3109,0.3155,0.3175,0.315,0.3264,0.3208,0.3215,0.3225,0.3291,0.3309,0.3324,0.3126,0.3126,0.3125,0,0,0.2893,0.2912,0.2931,0.2958,0.2999,0.3017,0.3031,0.3063,0.3085,0.3124,0.3132,0.3174,0.3198,0.3228,0.3243,0.3315,0.3315,0.3322,0.3372,0.3438,0.3453,0.3467,0.3516,0.3533,0.332,0.332,0.332,0,0.2891,0.2917,0.2942,0.2972,0.2999,0.3028,0.306,0.3091,0.3129,0.3158,0.3147,0.3232,0.3239,0.3314,0.3341,0.3337,0.3367,0.3325,0.345,0.3464,0.3476,0.3524,0.3542,0.3324,0.3324,0.3323,0.3323,0,0.2911,0.294,0.2957,0.3006,0.3039,0.3073,0.3122,0.316,0.3188,0.322,0.3302,0.3327,0.3376,0.3393,0.3385,0.3488,0.3479,0.3458,0.3419,0.3498,0.3543,0.3561,0.3329,0.3328,0.3327,0.3326,0,0,0.2885,0.2957,0.2963,0.2993,0.3062,0.3089,0.3156,0.3223,0.3282,0.3325,0.3403,0.346,0.3483,0.3504,0.3517,0.3572,0.3684,0.3555,0.3557,0.36,0.3831,0.3769,0.3782,0.3687,0.3691,0.3693,0.3826,0,0.2895,0.2948,0.2988,0.3046,0.308,0.3138,0.3202,0.327,0.3335,0.342,0.3473,0.3555,0.3524,0.357,0.3619,0.3681,0.3735,0.365,0.3752,0.3755,0.3688,0.3803,0.3505,0.3594,0.3844,0.3847,0.3849,0,0.2899,0.2936,0.299,0.3076,0.3098,0.3141,0.3254,0.3321,0.3447,0.3507,0.3595,0.3642,0.3747,0.3706,0.3841,0.379,0.3818,0.385,0.3855,0.3788,0.3728,0.3556,0.3616,0.3878,0.3876,0.3874,0.3872,0,0.2859,0.2937,0.2978,0.3005,0.3107,0.315,0.3215,0.3341,0.3419,0.358,0.3657,0.377,0.3852,0.3912,0.3964,0.3922,0.4106,0.4049,0.4017,0.4012,0.3774,0.3743,0.4145,0.4145,0.4144,0.4144,0.4144,0,0.285,0.2881,0.296,0.2983,0.3051,0.3135,0.3238,0.333,0.3477,0.3586,0.3699,0.3799,0.3912,0.4011,0.4029,0.4092,0.4157,0.4061,0.4059,0.3788,0.3758,0.4006,0.3988,0.4149,0.4148,0.4147,0.4146,0,0.2805,0.2854,0.2901,0.2997,0.3032,0.3083,0.323,0.332,0.3466,0.3617,0.3676,0.3858,0.4,0.4088,0.4217,0.4181,0.4242,0.4236,0.3909,0.3866,0.4085,0.4069,0.4228,0.4228,0.4227,0.4227,0.4226,0,0.2787,0.2807,0.2893,0.293,0.2975,0.3066,0.3149,0.33,0.3388,0.3635,0.3692,0.3896,0.4,0.4171,0.418,0.4233,0.4267,0.3964,0.3825,0.412,0.4102,0.4087,0.4072,0.3534,0.3528,0.3524,0.352,0,0.2766,0.2794,0.2846,0.2897,0.2967,0.3038,0.3146,0.3195,0.3389,0.3503,0.3655,0.3767,0.3967,0.3897,0.3991,0.3967,0.3934,0.3866,0.4287,0.356,0.3477,0.3455,0.3461,0.3475,0.348,0.3483,0.3485,0.3487,0.2752,0.2762,0.2818,0.2861,0.2928,0.2956,0.2977,0.3086,0.3168,0.3278,0.3476,0.3542,0.3644,0.3632,0.3552,0.3506,0.3762,0.3583,0.3593,0.361,0.3507,0.3427,0.3397,0.34,0.3404,0.3407,0.3409,0,0.2716,0.273,0.2776,0.2798,0.2797,0.2883,0.2936,0.2895,0.2908,0.308,0.3166,0.2994,0.2997,0.3087,0.2962,0.2993,0.2916,0.2861,0.2717,0.2768,0.2811,0.2659,0.2328,0.2324,0.232,0.2316,0,0,0.2693,0.2682,0.2679,0.263,0.2662,0.2615,0.2602,0.2577,0.2611,0.2573,0.261,0.2864,0.3024,0.262,0.2598,0.2432,0.2564,0.2347,0.3231,0.3114,0.3151,0.3268,0.3099,0,0,0,0,0]},{"header":{"parameterUnit":"m.s-1","parameterCategory":2,"la1":30.2991,"la2":30.254,"lo1":-89.0895,"lo2":-89.0444,"dy":0.0017,"dx":0.0017,"nx":28,"ny":28,"refTime":"2025-04-28T09:00:00:Z","depth":"2","parameterNumber":3,"parameterNumberName":"V-component_of_CURRENTS"},"data":[0,0,0,0,0,0,0,0,0,0,0,0,0,0,0,0,0,0,0,0,0,0,0,0,0,0,0,0,0,0,0,0,0,0,0,0,0,0,0,0,0,0,0,0,0,0,0,0,0,0,0,0,0,0,0,0,0,0,0.0075,0.0074,0,-0.0012,-0.0013,-0.0014,-0.0069,-0.0069,-0.0069,-0.007,-0.0176,-0.0178,-0.0181,0,0,0,0,0,0,0,0,0,0,0,0,0,0.0131,0.0131,0.0075,0.0074,0.0073,-0.0011,-0.0013,-0.0014,-0.0069,-0.0069,-0.0069,-0.007,-0.0175,-0.0178,-0.0181,0,0,0,0,0,0,0,0,0,0,0,0,0,0.008,0.0131,0.0075,0.0037,0.0033,-0.0011,-0.0013,-0.0015,-0.0069,-0.0069,-0.0069,-0.007,-0.0174,-0.0178,-0.0182,-0.0203,0,0,-0.0194,-0.0196,0,0,0,0,0,0,0,0,0.0083,0.0078,0.0043,0.0039,0.0035,-0.0028,-0.0032,-0.0078,-0.0069,-0.0033,-0.007,-0.007,-0.0127,-0.0135,-0.0153,-0.0208,-0.0212,-0.0195,-0.0197,-0.0199,-0.02,0,0,0,0,0,0,0,0.0087,0.0081,0.0038,0.0042,0.0037,0.0004,-0.0004,-0.0041,-0.0079,-0.0036,-0.004,-0.0046,-0.013,-0.0149,-0.0156,-0.0214,-0.0194,-0.0198,-0.0201,-0.0202,-0.0276,-0.0275,0,0,0,0,0,0,0.0105,0.0085,0.0041,0.0036,0.0061,0.0003,-0.0005,-0.0009,-0.0079,-0.0089,-0.0045,-0.0048,-0.0142,-0.0151,-0.016,-0.0162,-0.0199,-0.0203,-0.0205,-0.0276,-0.0276,-0.0275,0,0,0,0,0,0,0.0107,0.0102,0.0045,0.006,0.005,0.0003,-0.0002,-0.0011,-0.0026,-0.0085,-0.0096,-0.005,-0.0143,-0.0154,-0.0183,-0.0167,-0.0204,-0.0208,-0.0277,-0.0276,-0.0275,-0.0182,0,0,0,0,0,0,0.0109,0.0103,0.0107,0.0061,0.005,0.0031,-0.0002,-0.0012,-0.0029,-0.0033,-0.0093,-0.0104,-0.0144,-0.0176,-0.0187,-0.0173,-0.0211,-0.0277,-0.0276,-0.0276,-0.0186,-0.0178,-0.0172,0,0,0,0,0,0.0111,0.012,0.0108,0.0102,0.0057,0.0031,0.0023,-0.0014,-0.0028,-0.003,-0.0069,-0.0102,-0.0178,-0.0179,-0.0192,-0.0179,-0.0278,-0.0277,-0.0276,-0.0189,-0.018,-0.0172,0,0,0,0,0,0,0.0145,0.0114,0.01,0.0098,0.0073,0.0023,0.0019,-0.0006,-0.0039,-0.0041,-0.0098,-0.0111,-0.0131,-0.0169,-0.0168,-0.0198,-0.0233,-0.0234,-0.0162,-0.0154,-0.0148,-0.0126,-0.0215,0,0,0,0,0,0.0156,0.0156,0.0119,0.0119,0.011,0.0067,0.0052,0.003,-0.0006,-0.0021,-0.0062,-0.0104,-0.0138,-0.0155,-0.0194,-0.021,-0.0244,-0.021,-0.0202,-0.0196,-0.0187,-0.0222,-0.0217,-0.0272,-0.0272,-0.0272,0,0,0.0168,0.0152,0.0151,0.0126,0.0103,0.0104,0.0057,0.0045,0.0046,-0.0027,-0.0037,-0.0083,-0.0138,-0.0155,-0.0167,-0.0182,-0.0199,-0.0195,-0.0189,-0.0184,-0.022,-0.0215,-0.021,-0.0271,-0.0271,-0.0271,0,0,0.02,0.0181,0.0195,0.0181,0.0158,0.0134,0.0136,0.0095,0.0078,0.0058,0.0011,-0.0021,-0.0077,-0.0108,-0.0132,-0.011,-0.0163,-0.0124,-0.007,-0.0102,-0.0098,-0.0094,-0.0129,-0.0129,-0.0118,-0.0118,-0.0118,0,0.0217,0.023,0.0194,0.0207,0.0207,0.0156,0.0175,0.015,0.0106,0.0101,0.0069,-0.0004,-0.0053,-0.0068,-0.0063,-0.0093,-0.0123,-0.0094,-0.0092,-0.0089,-0.0087,-0.0124,-0.0125,-0.0113,-0.0114,-0.0114,-0.0115,0,0.0259,0.0271,0.028,0.0282,0.0276,0.0284,0.0252,0.0244,0.0215,0.0187,0.0161,0.0089,0.005,0.0026,-0.0016,-0.0021,-0.005,-0.0079,-0.0108,-0.0075,-0.0117,-0.012,-0.0107,-0.0108,-0.011,-0.0111,0,0,0.0293,0.0309,0.0313,0.0336,0.0321,0.0325,0.0332,0.0326,0.0344,0.0281,0.0292,0.0216,0.0175,0.0144,0.0086,0.005,0.0033,-0.0001,-0.0005,-0.0026,-0.0041,-0.0071,-0.0078,0.0005,0.0005,0.0005,-0.0074,0,0.034,0.0392,0.0381,0.0432,0.0458,0.0427,0.0442,0.0429,0.0407,0.0404,0.0324,0.0305,0.0221,0.0207,0.0158,0.0069,0.0028,0.0057,-0.0077,-0.0081,-0.0104,-0.0081,-0.0044,-0.0112,-0.0078,-0.0078,-0.0079,0,0.0386,0.0419,0.0479,0.0522,0.0531,0.0548,0.0576,0.0587,0.0564,0.0547,0.0508,0.0442,0.0382,0.0304,0.0167,0.019,0.0085,0.0004,-0.0002,-0.0063,-0.0117,-0.0141,-0.012,-0.0085,-0.0085,-0.0084,-0.0084,0,0.0438,0.0489,0.0546,0.0558,0.059,0.0613,0.0631,0.063,0.0666,0.0644,0.0663,0.0563,0.0531,0.0387,0.0209,0.0192,0.0054,0.0009,-0.0121,-0.0125,-0.0136,-0.014,-0.0089,-0.0089,-0.0089,-0.0089,-0.0089,0,0.0493,0.0538,0.0576,0.0607,0.0684,0.068,0.0759,0.076,0.0786,0.0853,0.0746,0.0762,0.055,0.0439,0.0258,0.0066,0.009,-0.0105,-0.0143,-0.0103,-0.0104,-0.0118,-0.012,-0.0092,-0.0091,-0.0091,-0.009,0,0.0535,0.0558,0.0629,0.0683,0.0711,0.0765,0.0856,0.092,0.0925,0.101,0.101,0.0919,0.0775,0.055,0.0321,0.0149,-0.0046,-0.0125,-0.0067,-0.0097,-0.0217,-0.0214,-0.0271,-0.0273,-0.0275,-0.0276,-0.0277,0,0.056,0.06,0.0691,0.0751,0.0779,0.0868,0.0943,0.0986,0.1062,0.1112,0.1159,0.1046,0.0985,0.0629,0.0303,-0.0011,-0.0055,-0.0185,-0.022,-0.0202,-0.0234,-0.0229,-0.0223,-0.02,-0.0201,-0.0201,-0.0201,0,0.061,0.0638,0.0705,0.0826,0.0918,0.103,0.1134,0.1217,0.1286,0.1344,0.1392,0.1347,0.1025,0.0705,0.0272,0.0064,-0.0134,-0.0201,-0.0187,-0.016,-0.0142,-0.0171,-0.0167,-0.0203,-0.0203,-0.0203,-0.0203,-0.0203,0.0649,0.07,0.0792,0.0912,0.1023,0.116,0.1272,0.1388,0.1512,0.1609,0.1556,0.1507,0.1149,0.0598,0.0219,-0.0165,-0.0152,-0.0285,-0.0281,-0.0278,-0.0255,-0.0241,-0.0316,-0.0317,-0.0317,-0.0317,-0.0318,0,0.0695,0.0762,0.0875,0.1015,0.114,0.12,0.1383,0.1483,0.1637,0.1727,0.1752,0.1421,0.1064,0.0665,0.009,-0.0264,-0.0278,-0.0363,-0.0307,-0.0302,-0.0298,-0.0275,-0.0343,-0.0344,-0.0345,-0.0346,0,0,0.072,0.0823,0.0881,0.1082,0.1194,0.1373,0.1485,0.1637,0.1732,0.179,0.1783,0.1701,0.1214,0.0791,0.0307,-0.0018,-0.0073,-0.0073,-0.0013,0.0116,0.0123,-0.0212,-0.0166,0,0,0,0,0]}],[{"header":{"parameterUnit":"m.s-1","parameterCategory":2,"la1":30.2991,"la2":30.254,"lo1":-89.0895,"lo2":-89.0444,"dy":0.0017,"dx":0.0017,"nx":28,"ny":28,"refTime":"2025-04-28T09:00:00:Z","depth":"4","parameterNumber":2,"parameterNumberName":"U-component_of_CURRENTS"},"data":[0,0,0,0,0,0,0,0,0,0,0,0,0,0,0,0,0,0,0,0,0,0,0,0,0,0,0,0,0,0,0,0,0,0,0,0,0,0,0,0,0,0,0,0,0,0,0,0,0,0,0,0,0,0,0,0,0,0,0.195,0.1951,0,0.2032,0.2033,0.2034,0.2101,0.2101,0.2102,0.2103,0.2202,0.2204,0.2206,0,0,0,0,0,0,0,0,0,0,0,0,0,0.1842,0.1843,0.1949,0.1951,0.1952,0.2032,0.2033,0.2034,0.21,0.2101,0.2102,0.2103,0.2202,0.2204,0.2206,0,0,0,0,0,0,0,0,0,0,0,0,0,0.1901,0.1844,0.1949,0.1996,0.2001,0.2032,0.2033,0.2034,0.21,0.2101,0.2103,0.2104,0.2201,0.2204,0.2206,0.2198,0,0,0.2215,0.2216,0,0,0,0,0,0,0,0,0.1898,0.1905,0.1988,0.1993,0.1999,0.2059,0.2031,0.209,0.21,0.2061,0.2103,0.2105,0.2156,0.2163,0.2172,0.2202,0.2206,0.2215,0.2217,0.2218,0.2219,0,0,0,0,0,0,0,0.1893,0.1902,0.198,0.1989,0.1996,0.201,0.202,0.2043,0.2099,0.2064,0.207,0.2081,0.2159,0.2169,0.2175,0.2208,0.2215,0.2217,0.2219,0.222,0.2368,0.237,0,0,0,0,0,0,0.1886,0.1898,0.1978,0.1983,0.1952,0.2011,0.2022,0.2037,0.2099,0.211,0.208,0.2084,0.2164,0.2172,0.2179,0.2286,0.2218,0.222,0.2222,0.2366,0.2368,0.2371,0,0,0,0,0,0,0.1884,0.1893,0.1974,0.1943,0.1955,0.2012,0.2028,0.2038,0.2091,0.2111,0.2122,0.2129,0.2165,0.2175,0.224,0.2286,0.2222,0.2224,0.2363,0.2366,0.237,0.2428,0,0,0,0,0,0,0.188,0.1891,0.1919,0.1943,0.1957,0.202,0.2027,0.2039,0.2095,0.2102,0.2155,0.2163,0.2167,0.2236,0.2243,0.2289,0.2226,0.236,0.2364,0.2368,0.2423,0.2433,0.2441,0,0,0,0,0,0.1876,0.1901,0.192,0.1931,0.1987,0.2021,0.203,0.2073,0.2096,0.2125,0.2167,0.2164,0.2268,0.224,0.2248,0.2296,0.2358,0.2363,0.2368,0.2419,0.2431,0.2441,0,0,0,0,0,0,0.1869,0.1911,0.1932,0.197,0.2008,0.2034,0.2071,0.2095,0.215,0.2173,0.2188,0.2199,0.2276,0.2278,0.2247,0.2353,0.2315,0.2322,0.2351,0.2362,0.2371,0.2366,0.2229,0,0,0,0,0,0.1879,0.1914,0.1949,0.1986,0.2008,0.2048,0.2076,0.2106,0.2146,0.2174,0.2211,0.2254,0.2295,0.2324,0.2358,0.2409,0.2422,0.2448,0.2457,0.2465,0.2467,0.2532,0.2547,0.2388,0.2388,0.2387,0,0,0.1887,0.1916,0.1938,0.1988,0.2024,0.2058,0.2069,0.2126,0.2165,0.2174,0.2256,0.2292,0.2318,0.2382,0.2417,0.2394,0.2519,0.2471,0.2477,0.2475,0.2539,0.2555,0.2568,0.2391,0.239,0.239,0,0,0.1904,0.195,0.198,0.2014,0.2075,0.2097,0.2122,0.2176,0.2219,0.2287,0.2311,0.2374,0.2435,0.2462,0.248,0.2559,0.2567,0.2582,0.2621,0.2686,0.2699,0.2711,0.2749,0.2764,0.2584,0.2584,0.2584,0,0.1917,0.1955,0.1995,0.203,0.2065,0.2118,0.2155,0.2199,0.2272,0.231,0.2327,0.2444,0.2468,0.254,0.257,0.2579,0.2613,0.2574,0.2697,0.2709,0.272,0.2756,0.2772,0.2587,0.2587,0.2586,0.2586,0,0.194,0.1988,0.2012,0.2072,0.2114,0.2161,0.2216,0.2278,0.2337,0.2378,0.2484,0.2527,0.2594,0.2618,0.2618,0.2714,0.2712,0.2702,0.2664,0.2739,0.2773,0.2788,0.2592,0.2591,0.259,0.2589,0,0,0.192,0.201,0.2023,0.2059,0.2144,0.2174,0.2255,0.2329,0.2394,0.2476,0.256,0.2635,0.2676,0.27,0.2725,0.2778,0.2882,0.278,0.2782,0.2809,0.3025,0.2827,0.2824,0.2906,0.2909,0.2911,0.3017,0,0.1931,0.1993,0.2042,0.2112,0.2147,0.2224,0.229,0.237,0.2453,0.255,0.2617,0.2714,0.2703,0.2763,0.2813,0.2878,0.2926,0.2854,0.2955,0.2957,0.2765,0.2836,0.2921,0.3028,0.3032,0.3034,0.3036,0,0.1928,0.1974,0.2041,0.2135,0.2161,0.2217,0.2339,0.2409,0.2542,0.2616,0.2718,0.2782,0.2888,0.287,0.3002,0.2966,0.3,0.3032,0.3037,0.2838,0.2787,0.2939,0.3063,0.3061,0.3059,0.3057,0.3055,0,0.1874,0.197,0.2026,0.2058,0.2172,0.2231,0.2305,0.2435,0.2508,0.268,0.2758,0.2882,0.2973,0.3043,0.3104,0.3081,0.3234,0.3205,0.3052,0.3039,0.3159,0.3145,0.329,0.3289,0.3289,0.3289,0.3289,0,0.1844,0.1891,0.2013,0.204,0.2117,0.2216,0.232,0.2417,0.2567,0.2654,0.2796,0.2877,0.3029,0.3121,0.3152,0.3142,0.3275,0.3066,0.3056,0.3181,0.3169,0.3169,0.3154,0.3293,0.3292,0.3291,0.3291,0,0.1765,0.1849,0.1913,0.2044,0.2092,0.215,0.2309,0.238,0.2545,0.2669,0.2734,0.2918,0.3035,0.3138,0.3268,0.3185,0.3211,0.3172,0.3305,0.3301,0.2961,0.2948,0.3008,0.3002,0.2997,0.2993,0.2989,0,0.1721,0.1752,0.1893,0.1936,0.2002,0.2108,0.2179,0.2352,0.2425,0.2658,0.2698,0.2883,0.298,0.2997,0.3122,0.3167,0.313,0.3121,0.302,0.2949,0.2935,0.293,0.2924,0.2981,0.298,0.2978,0.2977,0,0.1628,0.17,0.1752,0.1843,0.1924,0.1994,0.2112,0.2148,0.2346,0.252,0.2603,0.2673,0.2792,0.2877,0.2936,0.2959,0.3114,0.3066,0.3076,0.2982,0.2917,0.2907,0.2907,0.2959,0.2962,0.2964,0.2965,0,0.1561,0.1567,0.1652,0.1717,0.1813,0.1844,0.1925,0.201,0.21,0.2357,0.2382,0.2576,0.2758,0.277,0.2825,0.2833,0.2786,0.2693,0.2721,0.2742,0.2605,0.248,0.2386,0,0,0,0,0,0.1476,0.1469,0.1518,0.1571,0.1664,0.1718,0.186,0.1949,0.2144,0.2141,0.2252,0.2349,0.2436,0.2541,0.2497,0.2709,0.2796,0.2646,0.2701,0.2861,0.2881,0.2744,0,0,0,0,0,0,0.1415,0.1449,0.1459,0.1437,0.1456,0.1528,0.1612,0.1748,0.1755,0.1972,0.2031,0.2203,0.2322,0.2431,0.2449,0.2481,0.2468,0.2775,0.2769,0.2849,0.2868,0.2884,0.275,0,0,0,0,0]},{"header":{"parameterUnit":"m.s-1","parameterCategory":2,"la1":30.2991,"la2":30.254,"lo1":-89.0895,"lo2":-89.0444,"dy":0.0017,"dx":0.0017,"nx":28,"ny":28,"refTime":"2025-04-28T09:00:00:Z","depth":"4","parameterNumber":3,"parameterNumberName":"V-component_of_CURRENTS"},"data":[0,0,0,0,0,0,0,0,0,0,0,0,0,0,0,0,0,0,0,0,0,0,0,0,0,0,0,0,0,0,0,0,0,0,0,0,0,0,0,0,0,0,0,0,0,0,0,0,0,0,0,0,0,0,0,0,0,0,0.0055,0.0054,0,-0.0006,-0.0007,-0.0007,-0.0046,-0.0046,-0.0046,-0.0046,-0.0129,-0.0131,-0.0133,0,0,0,0,0,0,0,0,0,0,0,0,0,0.0091,0.0091,0.0055,0.0054,0.0053,-0.0006,-0.0007,-0.0008,-0.0046,-0.0046,-0.0046,-0.0046,-0.0128,-0.013,-0.0133,0,0,0,0,0,0,0,0,0,0,0,0,0,0.0056,0.009,0.0055,0.0028,0.0025,-0.0005,-0.0007,-0.0008,-0.0046,-0.0046,-0.0046,-0.0046,-0.0127,-0.013,-0.0133,-0.015,0,0,-0.0143,-0.0144,0,0,0,0,0,0,0,0,0.0058,0.0054,0.0033,0.003,0.0027,-0.0017,-0.0024,-0.0056,-0.0046,-0.0021,-0.0046,-0.0047,-0.0092,-0.0098,-0.0111,-0.0154,-0.0158,-0.0143,-0.0145,-0.0146,-0.0147,0,0,0,0,0,0,0,0.0061,0.0057,0.0029,0.0032,0.0029,0.0004,-0.0001,-0.003,-0.0057,-0.0023,-0.0025,-0.003,-0.0094,-0.0108,-0.0113,-0.0159,-0.0143,-0.0146,-0.0148,-0.0149,-0.0207,-0.0207,0,0,0,0,0,0,0.0074,0.0059,0.0031,0.0027,0.0044,0.0004,-0.0002,-0.0004,-0.0056,-0.0063,-0.0029,-0.0031,-0.0103,-0.011,-0.0117,-0.0116,-0.0146,-0.0149,-0.0151,-0.0207,-0.0207,-0.0207,0,0,0,0,0,0,0.0075,0.0072,0.0033,0.0043,0.0037,0.0004,0.0001,-0.0005,-0.0016,-0.006,-0.0068,-0.0033,-0.0103,-0.0112,-0.0134,-0.012,-0.0151,-0.0154,-0.0208,-0.0207,-0.0207,-0.013,0,0,0,0,0,0,0.0076,0.0073,0.0076,0.0044,0.0037,0.0024,0.0001,-0.0006,-0.0018,-0.0021,-0.0066,-0.0074,-0.0104,-0.0129,-0.0137,-0.0125,-0.0156,-0.0208,-0.0208,-0.0207,-0.0133,-0.0127,-0.0121,0,0,0,0,0,0.0078,0.0085,0.0077,0.0073,0.0042,0.0025,0.0019,-0.0007,-0.0018,-0.0018,-0.0047,-0.0073,-0.0131,-0.0131,-0.0141,-0.0129,-0.0209,-0.0208,-0.0207,-0.0135,-0.0128,-0.0121,0,0,0,0,0,0,0.0101,0.0081,0.0071,0.0071,0.0054,0.0019,0.0017,-0.0001,-0.0026,-0.0027,-0.007,-0.008,-0.0096,-0.0124,-0.0124,-0.0145,-0.0173,-0.0174,-0.0115,-0.0109,-0.0103,-0.0088,-0.0159,0,0,0,0,0,0.0109,0.011,0.0085,0.0086,0.0081,0.005,0.004,0.0024,-0.0002,-0.0013,-0.0044,-0.0075,-0.0101,-0.0113,-0.0143,-0.0154,-0.0188,-0.0153,-0.0147,-0.0142,-0.0136,-0.0173,-0.017,-0.0204,-0.0204,-0.0204,0,0,0.0118,0.0108,0.0108,0.0092,0.0076,0.0079,0.0043,0.0035,0.0038,-0.0018,-0.0023,-0.0059,-0.0101,-0.0112,-0.0121,-0.0132,-0.0151,-0.0141,-0.0136,-0.0134,-0.0172,-0.0169,-0.0166,-0.0203,-0.0203,-0.0204,0,0,0.0142,0.0129,0.0141,0.0132,0.0117,0.0101,0.0103,0.0073,0.0062,0.0048,0.0013,-0.0012,-0.0053,-0.0075,-0.0093,-0.0075,-0.0123,-0.0086,-0.0041,-0.0076,-0.0073,-0.0071,-0.011,-0.0112,-0.0079,-0.0079,-0.0079,0,0.0154,0.0166,0.0141,0.0152,0.0154,0.0117,0.0134,0.0117,0.0085,0.0082,0.0058,0.0001,-0.0034,-0.0044,-0.0038,-0.0061,-0.0092,-0.006,-0.0067,-0.0066,-0.0066,-0.0106,-0.011,-0.0075,-0.0075,-0.0076,-0.0076,0,0.0187,0.0198,0.0205,0.0211,0.0209,0.0216,0.0196,0.0191,0.017,0.015,0.0129,0.0075,0.0046,0.0029,0.0,-0.0007,-0.0035,-0.0058,-0.0081,-0.0057,-0.0102,-0.0107,-0.007,-0.0071,-0.0072,-0.0073,0,0,0.0209,0.0227,0.023,0.025,0.0244,0.0248,0.0259,0.0257,0.0269,0.0224,0.0229,0.0177,0.0143,0.0121,0.0078,0.0046,0.0021,0.0003,-0.0001,-0.0028,-0.0061,-0.0078,-0.0085,-0.0003,-0.0004,-0.0004,-0.0094,0,0.0244,0.0286,0.0283,0.0326,0.0347,0.0329,0.0344,0.0337,0.032,0.0313,0.0254,0.0237,0.0181,0.0169,0.0128,0.0047,0.0012,0.0047,-0.0087,-0.009,-0.0102,-0.009,-0.0005,-0.0098,-0.0099,-0.01,-0.0101,0,0.0277,0.0304,0.0354,0.0392,0.04,0.0419,0.0443,0.0454,0.0434,0.0419,0.0387,0.0336,0.0286,0.0231,0.0108,0.0133,0.0046,-0.0024,-0.0029,-0.0074,-0.0115,-0.0129,-0.011,-0.0109,-0.0109,-0.0108,-0.0108,0,0.0307,0.0354,0.04,0.0412,0.0445,0.0468,0.0486,0.0486,0.051,0.049,0.0493,0.0416,0.0381,0.0266,0.012,0.0115,-0.0027,-0.0052,-0.0151,-0.0154,-0.0146,-0.0148,-0.0139,-0.0139,-0.0138,-0.0138,-0.0138,0,0.0341,0.0379,0.0421,0.0446,0.0508,0.0515,0.0574,0.0578,0.0593,0.0626,0.0553,0.0544,0.0387,0.0284,0.0146,-0.0017,-0.0009,-0.0141,-0.0175,-0.0113,-0.0109,-0.015,-0.015,-0.0141,-0.0141,-0.014,-0.0139,0,0.0358,0.0386,0.0444,0.0497,0.0524,0.0567,0.0641,0.0682,0.0685,0.0724,0.0722,0.064,0.0505,0.0334,0.0142,0.0025,-0.0133,-0.0195,-0.0114,-0.0142,-0.0244,-0.0239,-0.0307,-0.0308,-0.0309,-0.031,-0.0311,0,0.0367,0.0399,0.0483,0.053,0.0558,0.063,0.0686,0.0725,0.0771,0.0779,0.0795,0.0688,0.0606,0.0332,0.0141,-0.0121,-0.0165,-0.0247,-0.0248,-0.0234,-0.026,-0.0254,-0.0248,-0.0312,-0.0313,-0.0313,-0.0313,0,0.0382,0.0412,0.0463,0.0563,0.0635,0.072,0.0798,0.0841,0.0884,0.0889,0.0859,0.0718,0.0562,0.034,0.0134,-0.0057,-0.0192,-0.026,-0.0259,-0.026,-0.0242,-0.0265,-0.0258,-0.0317,-0.0316,-0.0316,-0.0316,0,0.0393,0.0428,0.0503,0.0593,0.0688,0.0778,0.0822,0.0876,0.0922,0.093,0.0915,0.0748,0.0655,0.0371,0.0181,-0.0007,-0.0061,-0.0125,-0.0132,-0.013,-0.0059,-0.0008,-0.0036,0,0,0,0,0,0.0403,0.0452,0.0532,0.0634,0.0728,0.0789,0.0885,0.0922,0.0966,0.0957,0.0942,0.0797,0.0522,0.0402,0.0211,0.0139,-0.0108,-0.0093,-0.0189,-0.0337,-0.0333,-0.0282,0,0,0,0,0,0,0.0412,0.0484,0.0528,0.0653,0.0729,0.0838,0.0903,0.0936,0.0931,0.0943,0.0802,0.0742,0.0472,0.0633,0.0206,0.0148,0.0058,-0.0218,-0.0223,-0.034,-0.0336,-0.0333,-0.0278,0,0,0,0,0]}]]